Skip Page Navigation
NASA JPL Caltech
NASA Logo - Jet Propulsion Laboratory + View the NASA Portal
+ Center for Near-Earth Object Studies
JPL Home Earth Solar System Stars & Galaxies Technology
JPL Solar System Dynamics
BODIES ORBITS EPHEMERIDES TOOLS PHYSICAL DATA DISCOVERY FAQ SITE MAP
IMPORTANT: The SSD Announcement email list is now available. Major changes are coming in the near future, including possible hostname and/or URL changes. To be notified of such changes, subscribe to this email list.

Please visit this page for more details.


JPL Small-Body Database Browser
Search: [ help ]  
80594 (2000 AA145)
Classification: Main-belt Asteroid          SPK-ID: 2080594
Ephemeris | Orbit Diagram | Orbital Elements | Mission Design | Physical Parameters | Discovery Circumstances ]

[ show orbit diagram ]
Orbital Elements at Epoch 2458600.5 (2019-Apr-27.0) TDB
Reference: JPL 20 (heliocentric ecliptic J2000)
 Element Value Uncertainty (1-sigma)   Units 
e .1562957820110035 4.7225e-08  
a 2.404006081902097 1.0113e-08 au
q 2.028270071371999 1.1013e-07 au
i 4.441457380794449 3.7169e-06 deg
node 289.8751976498032 5.8337e-05 deg
peri 280.07201436097 6.0304e-05 deg
M 13.17797499902398 1.2508e-05 deg
tp 2458550.663452481898
(2019-Mar-08.16345248)
4.7346e-05 TDB
period 1361.450230998724
3.73
8.5907e-06
2.352e-08
d
yr
n .2644239148836997 1.6685e-09 deg/d
Q 2.779742092432194 1.1693e-08 au
  Orbit Determination Parameters
   # obs. used (total)      1005  
   data-arc span      7591 days (20.78 yr)  
   first obs. used      1998-11-15  
   last obs. used      2019-08-28  
   planetary ephem.      DE431  
   SB-pert. ephem.      SB431-N16  
   condition code      0  
   norm. resid. RMS      .54664  
   source      ORB  
   producer      Otto Matic  
   solution date      2019-Sep-24 02:49:50  

Additional Information
 Earth MOID = 1.02877 au 
 Jupiter MOID = 2.21371 au 
 T_jup = 3.503 
[ show covariance matrix ]

Ephemeris | Orbit Diagram | Orbital Elements | Mission Design | Physical Parameters | Discovery Circumstances ]

Physical Parameter Table
Parameter Symbol Value Units Sigma Reference Notes
absolute magnitude H 15.1   n/a MPO493439  

80594 (2000 AA145)          Discovered 2000-Jan-05 by LINEAR at Socorro
Reference: 20040504/Numbers.arcLast Updated: 2004-07-16
Ephemeris | Orbit Diagram | Orbital Elements | Mission Design | Physical Parameters | Discovery Circumstances ]
ABOUT SSD CREDITS/AWARDS PRIVACY/COPYRIGHT GLOSSARY LINKS
FirstGov 2020-Jan-24 09:18 UT
(server date/time)  
NASA Home Page
Site Manager:   Ryan S. Park
Webmaster  Alan B. Chamberlin